Regional Weather Roundup
Issued by NWS State College, PA

Home | Current Version | Previous Version | Text Only | Print | Product List | Glossary On
Versions: 1 2 3 4 5 6 7 8 9 10 11 12 13 14 15 16 17 18 19 20 21 22 23 24 25 26 27 28 29 30 31 32 33 34 35 36 37 38 39 40 41 42 43 44 45 46 47 48 49 50
452
ASUS41 KCTP 080203
RWRCTP

REGIONAL WEATHER ROUNDUP
NATIONAL WEATHER SERVICE STATE COLLEGE PA
900 PM EST WED DEC 07 2016

Note: "fair" indicates few or no clouds below 12,000 feet with no
significant weather and/or obstructions to visibility.

* = STATION THAT DOES NOT REPORT PRECIPITATION /E.G. RAIN...SNOW...ETC/
    THUNDER OR FOG.

PAZ002>004-007>009-013>016-020>023-029>032-080300-
WESTERN PENNSYLVANIA

CITY           SKY/WX    TMP DP  RH WIND       PRES   REMARKS
ERIE           PTCLDY    35  21  56 SW10      30.02F
MEADVILLE      CLOUDY    32  20  61 SW6       30.01S
FRANKLIN*        N/A     30  19  64 SW8       30.02F
NEW CASTLE     CLOUDY    33  23  66 SW3       30.05F
BEAVER COUNTY  CLOUDY    32  23  69 SW3       30.04F
BUTLER*        CLOUDY    32  19  59 CALM      30.06F
PITTSBURGH INT CLOUDY    37  23  56 SW3       30.05F
PITTSBURGH     CLOUDY    36  20  52 SW7       30.04F
INDIANA*       CLOUDY    32  25  74 CALM      30.07S
LATROBE        CLOUDY    34  25  69 SW6       30.07
WASHINGTON CO* CLOUDY    34  23  64 SW5       30.06S
$$

PAZ004>006-010>012-017>019-024>028-033>037-041-042-045-046-049>053-080300-
CENTRAL PENNSYLVANIA

CITY           SKY/WX    TMP DP  RH WIND       PRES   REMARKS
BRADFORD       PTCLDY    30  22  72 SW6       29.95F
DUBOIS         PTCLDY    29  20  69 W9        29.99F
CLEARFIELD     CLEAR     32  23  69 S6        30.02S
JOHNSTOWN      CLOUDY    32  20  61 SW6       30.00S
ALTOONA        CLOUDY    36  22  56 SW7       30.04S
STATE COLLEGE  MOCLDY    34  23  64 SW6       30.02F
WILLIAMSPORT   CLOUDY    36  31  82 CALM      30.03R
SELINSGROVE    PTCLDY    39  28  64 CALM      30.04R
FT INDIANTOWN  CLOUDY    37  35  93 CALM      30.04R
CAPITAL CITY   CLEAR     39  26  59 SW5       30.05S
HARRISBURG     MOCLDY    37  33  85 CALM      30.04S
YORK           CLEAR     30  30 100 CALM      30.05S
$$

PAZ038>040-043-044-047-048-054-055-060>062-067>071-080300-
EASTERN PENNSYLVANIA

CITY           SKY/WX    TMP DP  RH WIND       PRES   REMARKS
SCRANTON       PTCLDY    38  29  70 SW3       30.00S
MOUNT POCONO   CLOUDY    31  28  89 CALM      29.97F
ALLENTOWN      CLOUDY    37  29  72 SW3       30.03F
QUAKERTOWN*    CLOUDY    34  32  93 CALM      30.04F
READING        PTCLDY    39  30  70 CALM      30.03F
LANCASTER      PTCLDY    38  32  79 CALM      30.05S
COATESVILLE    CLEAR     34  28  80 CALM      30.05F
POTTSTOWN      CLOUDY    34  31  88 CALM      30.05F
BLUE BELL      CLOUDY    32  32 100 CALM      30.03F
DOYLESTOWN     PTCLDY    36  33  89 CALM      30.03F
WILLOW GROVE   NOT AVBL
NORTH PHILA    CLEAR     37  35  92 W3        30.06F
PHILADELPHIA   PTCLDY    40  30  67 CALM      30.06F
$$




USA.gov is the U.S. government's official web portal to all federal, state and local government web resources and services.